Showing default

FOSSASAT2E21, 64536

Orbit data source: Space-Track

FOSSASAT2E21, 64536 is a payload satellite owned by WiseKey (ES) in SSO that was launched on Mon, 23 Jun 2025 UTC via an FALCON 9 launch vehicle from the Air Force Western Test Range (AFWTR). Payload-class satellites include a variety of spacecraft equipped with specific instruments for various scientific and technological missions. These include communications satellites like Starlink; space stations such as the ISS; scientific satellites like the Hubble; Earth observation satellites from companies like Planet Labs, Umbra, and HawkEye 360; GPS; miniature CubeSats for education and research; and military/defense satellites.

Loading next visibility...
Identifier
64536, 2025-135J
Orbit
SSO
Country
Flag of ESES / SPN
Related business
Manufacturer
Fossa Systems
Mission
Operational Commercial Communications
Bus & Motor
CUBESAT 3U, Unknown motor
Mass
4 kg wet, 4 kg dry
Launch date (UTC)
2025-06-23 (1 year ago)
Launch vehicle
FALCON 9
Launch site
Air Force Western Test Range (AFWTR)
Object type
Payload
Rocket body
Debris
Shape & HBR
Box + 2 Pan, 0.2 m
Radar Cross Section
0.035 m², Medium (>0.1 m² and < 1m²)

Expand to show TLE details & history
Last TLE update: 15 hours ago

TLE from 15 hours ago
0 FOSSASAT2E21
1 64536U 25135J   26207.57759803  .00003135  00000-0  14807-3 0  9996
2 64536  97.4675 321.4938 0005434  61.7342 298.4440 15.20156799 60803
Epoch: 2026-07-26T13:51Z
TLE epoch observation values (Epoch: 2026-07-26T13:51:44.469Z)
Latitude
-0.00014°
Longitude
169.28501°
Altitude
506.676 km
Speed
7.612 km/s
True Right ascension
21h 25m 58s
True Declination
0° 00' 00"
Sunlit
Object was in full shadow at epoch
Visualization orbit readout
Latitude
Unknown
Longitude
Unknown
Altitude
Unknown
Speed
Unknown
Apparent Right ascension
Unknown
Apparent Declination
Unknown
Sunlit
N/A
Visualization observer readout
Local Sidereal Time
18:21:46
Azimuth
Unknown
Elevation
Unknown
Doppler factor
Unknown
Orbital elements
Apogee altitude
506.074 km
Perigee altitude
498.597 km
Semi-major axis
6,880.472 km
Eccentricity
0.00054
Inclination
97.4675°
RAAN
321.4938°
Arg. of periapsis
61.7342°
True anomaly
298.38923°
Mean anomaly
298.444°
Eccentric anomaly
298.41662°
Mean motion
3.80291 °/min
Orbital period
94.66 mins
BSTAR
0.00014807
Loading maneuver chart data...
Computing Atmospheric mass density...
Loading historical data...
Loading historical data...
Loading historical data...
Loading historical data...
Loading historical data...
Loading historical data...
Loading historical data...

Documentation

Showing up to 5 results
|